Date,TemperatureHighF,TemperatureAvgF,TemperatureLowF,DewpointHighF,DewpointAvgF,DewpointLowF,HumidityHigh,HumidityAvg,HumidityLow,PressureMaxIn,PressureMinIn,WindSpeedMaxMPH,WindSpeedAvgMPH,GustSpeedMaxMPH,PrecipitationSumIn
2013-11-1,44.1,38.1,31.8,39.1,35.1,30.5,96,89,78,29.87,29.43,14,4,17,0.01
2013-11-2,56.5,39.9,30.4,40.3,33.0,28.3,96,78,48,30.02,29.87,7,2,10,0.00
2013-11-3,55.0,45.2,36.0,35.7,32.7,29.4,86,64,41,29.97,29.66,39,17,44,0.13
2013-11-4,47.5,39.3,28.0,37.8,30.9,19.7,89,73,51,30.06,29.66,23,6,31,0.04
2013-11-5,35.4,31.0,26.1,23.4,20.8,17.4,78,66,55,30.19,30.04,6,2,9,0.00
2013-11-6,44.8,32.5,21.2,25.8,21.4,14.9,77,65,47,30.10,30.02,11,2,16,0.00
2013-11-7,45.9,29.1,19.9,27.6,20.1,14.9,89,71,41,30.18,30.08,11,3,14,0.00
2013-11-8,41.7,35.0,23.2,37.2,27.2,17.1,93,74,48,30.09,29.53,26,10,32,0.04
2013-11-9,40.3,36.8,34.0,37.6,29.2,23.3,92,74,59,30.20,29.59,23,11,34,0.04
2013-11-10,37.4,30.5,23.0,27.6,22.9,9.8,85,74,56,30.24,30.05,17,5,24,0.00
2013-11-11,23.4,15.4,9.3,9.8,1.9,-1.5,64,55,42,30.66,30.17,20,10,26,0.00
2013-11-12,36.9,19.7,3.6,10.2,2.6,-5.4,69,51,23,30.67,30.23,11,4,16,0.00
2013-11-13,59.7,37.8,19.9,35.8,25.0,10.1,75,62,40,30.23,29.80,12,6,17,0.00
2013-11-14,50.7,37.8,30.4,36.2,30.5,25.2,88,76,54,29.81,29.72,14,3,18,0.00
2013-11-15,54.5,39.8,21.9,37.3,31.1,18.2,89,73,48,29.75,29.44,17,7,27,0.01
2013-11-16,44.2,40.6,34.0,43.4,38.6,30.0,99,93,75,29.45,29.18,21,7,27,0.01
2013-11-17,41.0,33.5,26.4,40.6,30.4,19.1,99,88,71,29.86,29.26,21,10,32,0.00
2013-11-18,36.5,26.2,20.5,21.8,17.1,12.6,79,69,49,30.14,29.86,21,6,32,0.00
2013-11-19,50.0,36.7,23.7,32.8,25.6,16.5,75,65,49,30.11,29.65,27,17,35,0.00
2013-11-20,45.9,40.2,22.8,31.4,28.4,17.5,87,64,54,30.03,29.65,21,10,28,0.00
2013-11-21,22.6,16.8,7.7,17.9,7.0,-2.5,85,65,52,30.51,30.02,22,13,28,0.01
2013-11-22,27.3,12.2,1.2,10.3,-0.7,-8.9,68,57,39,30.63,30.40,21,7,26,0.00
2013-11-23,17.1,5.1,-2.6,-1.1,-8.2,-13.1,62,54,39,30.79,30.53,15,5,23,0.00
2013-11-24,43.2,25.1,4.6,27.1,7.9,-6.8,66,50,26,30.55,29.79,19,10,27,0.00
2013-11-25,37.0,30.7,23.0,24.7,20.1,9.9,79,65,53,30.08,29.78,21,9,30,0.01
2013-11-26,23.0,15.1,5.7,11.6,2.3,-4.7,67,57,43,30.33,30.08,23,11,31,0.01
2013-11-27,24.4,12.8,0.3,5.2,-0.2,-10.1,67,56,43,30.32,29.90,23,7,30,0.00
2013-11-28,26.4,17.2,5.7,10.6,2.7,-6.1,66,53,37,30.38,29.98,20,6,27,0.00
2013-11-29,34.9,22.4,7.2,15.4,9.0,-3.7,66,57,44,30.38,29.95,24,10,30,0.00
2013-11-30,30.9,23.2,16.3,20.5,14.7,8.0,78,70,61,30.14,29.93,15,5,19,0.00